Regional Weather Roundup
Issued by NWS

Home | Current Version | Previous Version | Graphics & Text | Print | Product List | Glossary On
Versions: 1 2 3 4 5 6 7 8 9 10 11 12 13 14 15 16 17 18 19 20 21 22 23 24 25 26 27 28 29 30 31 32 33 34 35 36 37 38 39 40 41 42 43 44 45 46 47 48 49 50
120
ASUS43 KLOT 201709
RWRIL

ILLINOIS REGIONAL WEATHER ROUNDUP
NATIONAL WEATHER SERVICE CHICAGO/ROMEOVILLE IL
1200 PM CDT FRI OCT 20 2017

NOTE: "FAIR" INDICATES FEW OR NO CLOUDS BELOW 12,000 FEET WITH NO
SIGNIFICANT WEATHER AND/OR OBSTRUCTIONS TO VISIBILITY.

* THESE STATIONS ARE NOT UNDER NWS QUALITY CONTROL. THEY ALSO MAY NOT
  REPORT WEATHER SUCH AS PRECIPITATION OR FOG.

ILZ001-002-007-009-015-016-024-201800-
NORTHWEST ILLINOIS

CITY           SKY/WX    TMP DP  RH WIND       PRES   REMARKS
MOLINE         SUNNY     73  53  49 S10       30.10F
STERLING*      SUNNY     73  53  49 VRB5        N/A
SAVANNA*       SUNNY     71  54  54 S9        30.10F
$$

ILZ003-004-008-010-011-017-018-201800-
NORTH CENTRAL ILLINOIS

CITY           SKY/WX    TMP DP  RH WIND       PRES   REMARKS
ROCKFORD       MOSUNNY   73  51  46 S14       30.13F
FREEPORT*      SUNNY     72  51  48 SW13G18   30.13F
ROCHELLE*      SUNNY     73  52  46 SW9       30.14F
DE KALB*       SUNNY     72  53  51 S10       30.15F
PERU*          SUNNY     71  52  50 SW8       30.15F
$$

ILZ005-006-012>014-019>023-201800-
NORTHEAST ILLINOIS

CITY           SKY/WX    TMP DP  RH WIND       PRES   REMARKS
CHICAGO-OHARE  MOSUNNY   72  52  49 SW10      30.14F
CHICAGO-MIDWAY MOSUNNY   73  52  47 S10       30.15F
AURORA         SUNNY     71  54  54 S8        30.16F
LANSING*       SUNNY     73  56  56 S9        30.17F
JOLIET*        SUNNY     73  55  51 S5        30.16F
WAUKEGAN       SUNNY     73  55  53 SW12      30.12F
DUPAGE AIRPORT SUNNY     70  54  56 S7        30.14F
KANKAKEE*      SUNNY     73  53  49 S8        30.19F
WHEELING       SUNNY     72  53  51 S9        30.15F
MORRIS*        SUNNY     74  53  46 S9        30.15F
ROMEOVILLE*    SUNNY     72  54  53 S7        30.16F
NORTHERLY ISL    N/A     72  49  44 S10         N/A
$$

LMZ740>746-201800-
SOUTHERN LAKE MICHIGAN

STATION/POSITION SKY/WX   TEMP    WIND        PRES    VSBY  WAVE
                          AIR SEA DIR/SP/G                  HT/PER
                          (F)     (DEG/KT/KT) (MB)    (MI)  (FT/S)
SOUTHERN BUOY              61 61  190/ 16/ 17 1021.2          2/ 4
BURNS HARBOR               72     180/ 10/ 14 1022.4F
$$

ILZ025>027-034>036-040-047-049-050-058-095>099-201800-
WEST-CENTRAL ILLINOIS

CITY           SKY/WX    TMP DP  RH WIND       PRES   REMARKS
GALESBURG*     SUNNY     80  62  54 S8        30.13F HX  81
MACOMB*        SUNNY     73  51  46 S9        30.14F
JACKSONVILLE*  SUNNY     72  53  50 S8        30.16S
PITTSFIELD*    CLOUDY    71  53  53 S7        30.16F
$$

ILZ028>032-037-038-041>044-048-051>054-059>061-201800-
CENTRAL ILLINOIS

CITY           SKY/WX    TMP DP  RH WIND       PRES   REMARKS
PONTIAC        SUNNY     74  55  51 S7        30.18F
BLOOMINGTON    SUNNY     73  56  54 S9        30.19F
DECATUR        SUNNY     72  53  51 S9        30.20F
PEORIA         SUNNY     70  56  61 S9        30.16F
LACON*         SUNNY     71  54  55 S3        30.14F
LINCOLN*       SUNNY     74  55  52 S5        30.17F
SPRINGFIELD    SUNNY     73  55  53 S7        30.17F
TAYLORVILLE    SUNNY     73  52  48 S6        30.19F
$$

ILZ033-039-045-046-055>057-062-063-201800-
EAST-CENTRAL ILLINOIS

CITY           SKY/WX    TMP DP  RH WIND       PRES   REMARKS
CHAMPAIGN      SUNNY     76  51  41 SW10      30.21F
DANVILLE*      SUNNY     74  52  46 S10       30.19F
RANTOUL*       SUNNY     75  55  50 S9        30.20F
MATTOON        SUNNY     71  52  50 S12       30.22F
PARIS*         SUNNY     74  54  49 S9        30.24S
$$

ILZ079-100>102-201800-
SOUTHWEST ILLINOIS

CITY           SKY/WX    TMP DP  RH WIND       PRES   REMARKS
ALTON          PTSUNNY   70  54  56 S6        30.20F
CAHOKIA*       SUNNY     73  49  42 S8        30.19F
SPARTA*        SUNNY     71  52  52 S7        30.23F
$$

ILZ064>066-069>071-074>076-080>082-084>086-088>090-092>094-201800-
SOUTH-CENTRAL ILLINOIS

CITY           SKY/WX    TMP DP  RH WIND       PRES   REMARKS
CARBONDALE     SUNNY     71  54  54 VRB5      30.22F
CAIRO*         SUNNY     71  56  58 SE6       30.24F
EFFINGHAM*     SUNNY     74  52  46 S6        30.24F
MARION         SUNNY     72  54  53 SW9       30.24F
MT. VERNON     SUNNY     71  54  54 S7        30.23F
CENTRALIA*     SUNNY     73  53  48 SW6       30.22F
SALEM*         SUNNY     74  50  42 S7        30.22F
METROPOLIS*    SUNNY     72  56  57 CALM      30.25F
$$

ILZ067-068-072-073-078-083-087-091-201800-
SOUTHEAST ILLINOIS

CITY           SKY/WX    TMP DP  RH WIND       PRES   REMARKS
LAWRENCEVILLE  SUNNY     72  54  53 S12       30.26S
FLORA*         SUNNY     73  54  51 S10       30.24F
FAIRFIELD*     SUNNY     72  53  50 S7        30.23F
HARRISBURG*    SUNNY     71  53  53 SW6       30.25F
ROBINSON*      SUNNY     73  52  47 SW8       30.25F
CARMI*         SUNNY     73  54  50 S7        30.25S
$$

ABBREVIATIONS USED IN REMARKS
   TC - TEMPERATURE IN CELSIUS
  WCI - WIND CHILL INDEX
   HX - HEAT INDEX
  VSB - VISIBILITY
$$





USA.gov is the U.S. government's official web portal to all federal, state and local government web resources and services.